Time,TemperatureF,DewpointF,PressureIn,WindDirection,WindDirectionDegrees,WindSpeedMPH,WindSpeedGustMPH,Humidity,HourlyPrecipIn,Conditions,Clouds,dailyrainin,SolarRadiationWatts/m^2,SoftwareType,DateUTC
2013-10-05 00:22:00,49.0,10.0,-100.00,ENE,58,6.0,16.0,20,0.00,,,0.00,0.000000,,2013-10-05 07:22:00,
2013-10-05 00:32:00,49.0,10.0,-100.00,ENE,58,6.0,16.0,20,0.00,,,0.00,0.000000,,2013-10-05 07:32:00,
2013-10-05 00:42:00,49.0,10.0,-100.00,ENE,58,6.0,16.0,20,0.00,,,0.00,0.000000,,2013-10-05 07:42:00,
2013-10-05 00:52:00,49.0,11.0,-100.00,NE,51,5.0,17.0,21,0.00,,,0.00,0.000000,,2013-10-05 07:52:00,
2013-10-05 01:23:00,49.0,11.0,-100.00,NE,51,5.0,17.0,21,0.00,,,0.00,0.000000,,2013-10-05 08:23:00,
2013-10-05 01:32:00,49.0,11.0,-100.00,NE,51,5.0,17.0,21,0.00,,,0.00,0.000000,,2013-10-05 08:32:00,
2013-10-05 01:42:00,49.0,11.0,-100.00,NE,51,5.0,17.0,21,0.00,,,0.00,0.000000,,2013-10-05 08:42:00,
2013-10-05 01:52:00,48.0,12.0,-100.00,ENE,58,6.0,17.0,23,0.00,,,0.00,0.000000,,2013-10-05 08:52:00,
2013-10-05 02:21:00,48.0,12.0,-100.00,ENE,58,6.0,17.0,23,0.00,,,0.00,0.000000,,2013-10-05 09:21:00,
2013-10-05 02:33:00,48.0,12.0,-100.00,ENE,58,6.0,17.0,23,0.00,,,0.00,0.000000,,2013-10-05 09:33:00,
2013-10-05 02:43:00,48.0,12.0,-100.00,ENE,58,6.0,17.0,23,0.00,,,0.00,0.000000,,2013-10-05 09:43:00,
2013-10-05 02:52:00,48.0,12.0,-100.00,NE,51,6.0,20.0,23,0.00,,,0.00,0.000000,,2013-10-05 09:52:00,
2013-10-05 03:23:00,48.0,12.0,-100.00,NE,51,6.0,20.0,23,0.00,,,0.00,0.000000,,2013-10-05 10:23:00,
2013-10-05 03:32:00,48.0,12.0,-100.00,NE,51,6.0,20.0,23,0.00,,,0.00,0.000000,,2013-10-05 10:32:00,
2013-10-05 03:43:00,48.0,12.0,-100.00,NE,51,6.0,20.0,23,0.00,,,0.00,0.000000,,2013-10-05 10:43:00,
2013-10-05 03:52:00,48.0,11.0,-100.00,NE,54,5.0,17.0,22,0.00,,,0.00,0.000000,,2013-10-05 10:52:00,
2013-10-05 04:22:00,48.0,11.0,-100.00,NE,54,5.0,17.0,22,0.00,,,0.00,0.000000,,2013-10-05 11:22:00,
2013-10-05 04:33:00,48.0,11.0,-100.00,NE,54,5.0,17.0,22,0.00,,,0.00,0.000000,,2013-10-05 11:33:00,
2013-10-05 04:42:00,48.0,11.0,-100.00,NE,54,5.0,17.0,22,0.00,,,0.00,0.000000,,2013-10-05 11:42:00,
2013-10-05 04:52:00,47.0,10.0,-100.00,ENE,61,5.0,24.0,22,0.00,,,-99.99,0.000000,,2013-10-05 11:52:00,
2013-10-05 05:22:00,47.0,10.0,-100.00,ENE,61,5.0,24.0,22,0.00,,,-99.99,0.000000,,2013-10-05 12:22:00,
2013-10-05 05:32:00,47.0,10.0,-100.00,ENE,61,5.0,24.0,22,0.00,,,-99.99,0.000000,,2013-10-05 12:32:00,
2013-10-05 05:42:00,47.0,10.0,-100.00,ENE,61,5.0,24.0,22,0.00,,,-99.99,0.000000,,2013-10-05 12:42:00,
2013-10-05 05:52:00,47.0,10.0,-100.00,ENE,65,4.0,15.0,22,0.00,,,0.00,0.000000,,2013-10-05 12:52:00,
2013-10-05 06:22:00,47.0,10.0,-100.00,ENE,65,4.0,15.0,22,0.00,,,0.00,0.000000,,2013-10-05 13:22:00,
2013-10-05 06:32:00,47.0,10.0,-100.00,ENE,65,4.0,15.0,22,0.00,,,0.00,0.000000,,2013-10-05 13:32:00,
2013-10-05 06:42:00,47.0,10.0,-100.00,ENE,65,4.0,15.0,22,0.00,,,0.00,0.000000,,2013-10-05 13:42:00,
2013-10-05 06:52:00,46.0,10.0,-100.00,NE,50,5.0,15.0,23,0.00,,,0.00,1.000000,,2013-10-05 13:52:00,
2013-10-05 07:22:00,46.0,10.0,-100.00,NE,50,5.0,15.0,23,0.00,,,0.00,1.000000,,2013-10-05 14:22:00,
2013-10-05 07:32:00,46.0,10.0,-100.00,NE,50,5.0,15.0,23,0.00,,,0.00,1.000000,,2013-10-05 14:32:00,
2013-10-05 07:42:00,46.0,10.0,-100.00,NE,50,5.0,15.0,23,0.00,,,0.00,1.000000,,2013-10-05 14:42:00,
2013-10-05 07:52:00,47.0,11.0,-100.00,ENE,66,5.0,15.0,23,0.00,,,0.00,16.000000,,2013-10-05 14:52:00,
2013-10-05 08:22:00,47.0,11.0,-100.00,ENE,66,5.0,15.0,23,0.00,,,0.00,16.000000,,2013-10-05 15:22:00,
2013-10-05 08:33:00,47.0,11.0,-100.00,ENE,66,5.0,15.0,23,0.00,,,0.00,16.000000,,2013-10-05 15:33:00,
2013-10-05 08:44:00,47.0,11.0,-100.00,ENE,66,5.0,15.0,23,0.00,,,0.00,16.000000,,2013-10-05 15:44:00,
2013-10-05 08:52:00,49.0,13.0,-100.00,ENE,66,4.0,16.0,23,0.00,,,0.00,44.000000,,2013-10-05 15:52:00,
2013-10-05 09:23:00,49.0,13.0,-100.00,ENE,66,4.0,16.0,23,0.00,,,0.00,44.000000,,2013-10-05 16:23:00,
2013-10-05 09:33:00,49.0,13.0,-100.00,ENE,66,4.0,16.0,23,0.00,,,0.00,44.000000,,2013-10-05 16:33:00,
2013-10-05 09:43:00,49.0,13.0,-100.00,ENE,66,4.0,16.0,23,0.00,,,0.00,44.000000,,2013-10-05 16:43:00,
2013-10-05 09:52:00,54.0,14.0,-100.00,ENE,78,5.0,15.0,20,0.00,,,0.00,469.000000,,2013-10-05 16:52:00,
2013-10-05 10:22:00,54.0,14.0,-100.00,ENE,78,5.0,15.0,20,0.00,,,0.00,469.000000,,2013-10-05 17:22:00,
2013-10-05 10:33:00,54.0,14.0,-100.00,ENE,78,5.0,15.0,20,0.00,,,0.00,469.000000,,2013-10-05 17:33:00,
2013-10-05 10:42:00,54.0,14.0,-100.00,ENE,78,5.0,15.0,20,0.00,,,0.00,469.000000,,2013-10-05 17:42:00,
2013-10-05 10:52:00,56.0,14.0,-100.00,ENE,75,4.0,12.0,19,0.00,,,0.00,723.000000,,2013-10-05 17:52:00,
2013-10-05 11:22:00,56.0,14.0,-100.00,ENE,75,4.0,12.0,19,0.00,,,0.00,723.000000,,2013-10-05 18:22:00,
2013-10-05 11:32:00,56.0,14.0,-100.00,ENE,75,4.0,12.0,19,0.00,,,0.00,723.000000,,2013-10-05 18:32:00,
2013-10-05 11:42:00,56.0,14.0,-100.00,ENE,75,4.0,12.0,19,0.00,,,0.00,723.000000,,2013-10-05 18:42:00,
2013-10-05 11:52:00,59.0,14.0,-100.00,East,79,5.0,14.0,17,0.00,,,0.00,850.000000,,2013-10-05 18:52:00,
2013-10-05 12:22:00,59.0,14.0,-100.00,East,79,5.0,14.0,17,0.00,,,0.00,850.000000,,2013-10-05 19:22:00,
2013-10-05 12:32:00,59.0,14.0,-100.00,East,79,5.0,14.0,17,0.00,,,0.00,850.000000,,2013-10-05 19:32:00,
2013-10-05 12:42:00,59.0,14.0,-100.00,East,79,5.0,14.0,17,0.00,,,0.00,850.000000,,2013-10-05 19:42:00,
2013-10-05 12:52:00,61.0,10.0,-100.00,NE,55,4.0,16.0,13,0.00,,,0.00,914.000000,,2013-10-05 19:52:00,
2013-10-05 13:42:00,61.0,10.0,-100.00,NE,55,4.0,16.0,13,0.00,,,0.00,914.000000,,2013-10-05 20:42:00,
2013-10-05 13:52:00,62.0,12.0,-100.00,East,88,3.0,16.0,14,0.00,,,0.00,902.000000,,2013-10-05 20:52:00,
2013-10-05 14:21:00,62.0,12.0,-100.00,East,88,3.0,16.0,14,0.00,,,0.00,902.000000,,2013-10-05 21:21:00,
2013-10-05 14:33:00,62.0,12.0,-100.00,East,88,3.0,16.0,14,0.00,,,0.00,902.000000,,2013-10-05 21:33:00,
2013-10-05 14:43:00,62.0,12.0,-100.00,East,88,3.0,16.0,14,0.00,,,0.00,902.000000,,2013-10-05 21:43:00,
2013-10-05 14:52:00,61.0,10.0,-100.00,SSE,156,3.0,9.0,13,0.00,,,0.00,820.000000,,2013-10-05 21:52:00,
2013-10-05 15:24:00,61.0,10.0,-100.00,SSE,156,3.0,9.0,13,0.00,,,0.00,820.000000,,2013-10-05 22:24:00,
2013-10-05 15:33:00,61.0,10.0,-100.00,SSE,156,3.0,9.0,13,0.00,,,0.00,820.000000,,2013-10-05 22:33:00,
2013-10-05 15:42:00,61.0,10.0,-100.00,SSE,156,3.0,9.0,13,0.00,,,0.00,820.000000,,2013-10-05 22:42:00,
2013-10-05 15:52:00,61.0,11.0,-100.00,ENE,72,4.0,9.0,14,0.00,,,0.00,676.000000,,2013-10-05 22:52:00,
2013-10-05 16:22:00,61.0,11.0,-100.00,ENE,72,4.0,9.0,14,0.00,,,0.00,676.000000,,2013-10-05 23:22:00,
2013-10-05 16:33:00,61.0,11.0,-100.00,ENE,72,4.0,9.0,14,0.00,,,0.00,676.000000,,2013-10-05 23:33:00,
2013-10-05 16:42:00,61.0,11.0,-100.00,ENE,72,4.0,9.0,14,0.00,,,0.00,676.000000,,2013-10-05 23:42:00,
2013-10-05 16:52:00,58.0,11.0,-100.00,NE,48,4.0,11.0,15,0.00,,,0.00,443.000000,,2013-10-05 23:52:00,
2013-10-05 17:23:00,58.0,11.0,-100.00,NE,48,4.0,11.0,15,0.00,,,0.00,443.000000,,2013-10-06 00:23:00,
2013-10-05 17:32:00,58.0,11.0,-100.00,NE,48,4.0,11.0,15,0.00,,,0.00,443.000000,,2013-10-06 00:32:00,
2013-10-05 17:43:00,58.0,11.0,-100.00,NE,48,4.0,11.0,15,0.00,,,0.00,443.000000,,2013-10-06 00:43:00,
2013-10-05 17:52:00,54.0,10.0,-100.00,ENE,63,3.0,8.0,17,0.00,,,0.00,29.000000,,2013-10-06 00:52:00,
2013-10-05 18:22:00,54.0,10.0,-100.00,ENE,63,3.0,8.0,17,0.00,,,0.00,29.000000,,2013-10-06 01:22:00,
2013-10-05 18:32:00,54.0,10.0,-100.00,ENE,63,3.0,8.0,17,0.00,,,0.00,29.000000,,2013-10-06 01:32:00,
2013-10-05 18:42:00,54.0,10.0,-100.00,ENE,63,3.0,8.0,17,0.00,,,0.00,29.000000,,2013-10-06 01:42:00,
2013-10-05 18:52:00,51.0,10.0,-100.00,NE,38,2.0,9.0,19,0.00,,,0.00,6.000000,,2013-10-06 01:52:00,
2013-10-05 19:22:00,51.0,10.0,-100.00,NE,38,2.0,9.0,19,0.00,,,0.00,6.000000,,2013-10-06 02:22:00,
2013-10-05 19:32:00,51.0,10.0,-100.00,NE,38,2.0,9.0,19,0.00,,,0.00,6.000000,,2013-10-06 02:32:00,
2013-10-05 19:42:00,51.0,10.0,-100.00,NE,38,2.0,9.0,19,0.00,,,0.00,6.000000,,2013-10-06 02:42:00,
2013-10-05 19:52:00,52.0,10.0,-100.00,NE,47,3.0,15.0,18,0.00,,,0.00,0.000000,,2013-10-06 02:52:00,
2013-10-05 20:22:00,52.0,10.0,-100.00,NE,47,3.0,15.0,18,0.00,,,0.00,0.000000,,2013-10-06 03:22:00,
2013-10-05 20:34:00,52.0,10.0,-100.00,NE,47,3.0,15.0,18,0.00,,,0.00,0.000000,,2013-10-06 03:34:00,
2013-10-05 20:44:00,52.0,10.0,-100.00,NE,47,3.0,15.0,18,0.00,,,0.00,0.000000,,2013-10-06 03:44:00,
2013-10-05 20:52:00,53.0,9.0,-100.00,NE,50,4.0,19.0,17,0.00,,,0.00,0.000000,,2013-10-06 03:52:00,
2013-10-05 21:24:00,53.0,9.0,-100.00,NE,50,4.0,19.0,17,0.00,,,0.00,0.000000,,2013-10-06 04:24:00,
2013-10-05 21:34:00,53.0,9.0,-100.00,NE,50,4.0,19.0,17,0.00,,,0.00,0.000000,,2013-10-06 04:34:00,
2013-10-05 21:44:00,53.0,9.0,-100.00,NE,50,4.0,19.0,17,0.00,,,0.00,0.000000,,2013-10-06 04:44:00,
2013-10-05 21:52:00,54.0,10.0,-100.00,NE,54,5.0,19.0,17,0.00,,,0.00,0.000000,,2013-10-06 04:52:00,
2013-10-05 22:22:00,54.0,10.0,-100.00,NE,54,5.0,19.0,17,0.00,,,0.00,0.000000,,2013-10-06 05:22:00,
2013-10-05 22:33:00,54.0,10.0,-100.00,NE,54,5.0,19.0,17,0.00,,,0.00,0.000000,,2013-10-06 05:33:00,
2013-10-05 22:42:00,54.0,10.0,-100.00,NE,54,5.0,19.0,17,0.00,,,0.00,0.000000,,2013-10-06 05:42:00,
2013-10-05 22:52:00,53.0,9.0,-100.00,ENE,70,4.0,13.0,17,0.00,,,0.00,0.000000,,2013-10-06 05:52:00,
2013-10-05 23:22:00,53.0,9.0,-100.00,ENE,70,4.0,13.0,17,0.00,,,0.00,0.000000,,2013-10-06 06:22:00,
2013-10-05 23:32:00,53.0,9.0,-100.00,ENE,70,4.0,13.0,17,0.00,,,0.00,0.000000,,2013-10-06 06:32:00,
2013-10-05 23:42:00,53.0,9.0,-100.00,ENE,70,4.0,13.0,17,0.00,,,0.00,0.000000,,2013-10-06 06:42:00,
2013-10-05 23:52:00,53.0,9.0,-100.00,NE,53,5.0,14.0,17,0.00,,,-99.99,0.000000,,2013-10-06 06:52:00,